When you browse on this site, cookies collect data to enhance your experience and personalize the content and advertising you see.
Visit our Privacy Policy to learn more. By continuing to use the site, you agree to this use of cookies and data.
  • In Hungary
  • List of Countries
  • For 7 days
  • Water Temperature
  • Satellite Maps
  • Weather Map
  • News
  • Weather Widgets
  • user-avatar
    Login

    Hourly Weather Scienne

    Today, 18 January, Friday

    Time Temperature Precipitation Wind Pressure Humidity
    00:00 0°C° 0.5 mm 5 mps 738 mmHg 85%
    01:00 0°C° 0.5 mm 5 mps 739 mmHg 84%
    02:00 -1°C° 0.1 mm 5 mps 740 mmHg 84%
    03:00 -1°C° 0.1 mm 5 mps 740 mmHg 84%
    04:00 -3°C° 0.1 mm 6 mps 741 mmHg 84%
    05:00 -2°C° 0 mm 5 mps 742 mmHg 82%
    06:00 -2°C° 0 mm 5 mps 743 mmHg 80%
    07:00 -4°C° 0 mm 5 mps 744 mmHg 78%
    08:00 -4°C° 0 mm 5 mps 745 mmHg 77%
    09:00 -3°C° 0 mm 4 mps 746 mmHg 75%
    10:00 -3°C° 0 mm 4 mps 747 mmHg 73%
    11:00 -2°C° 0 mm 5 mps 748 mmHg 71%
    12:00 -1°C° 0 mm 5 mps 748 mmHg 70%
    13:00 -1°C° 0 mm 5 mps 749 mmHg 68%
    14:00 -1°C° 0 mm 4 mps 749 mmHg 71%
    15:00 -2°C° 0 mm 4 mps 749 mmHg 74%
    16:00 -2°C° 0 mm 3 mps 750 mmHg 78%
    17:00 -2°C° 0 mm 3 mps 750 mmHg 80%
    18:00 -2°C° 0 mm 3 mps 750 mmHg 82%
    19:00 -2°C° 0 mm 3 mps 750 mmHg 83%
    20:00 -4°C° 0 mm 3 mps 751 mmHg 86%
    21:00 -4°C° 0 mm 3 mps 751 mmHg 89%
    22:00 -4°C° 0 mm 3 mps 751 mmHg 91%
    23:00 -4°C° 0 mm 3 mps 752 mmHg 91%

    Tomorrow, 19 January, Saturday

    Time Temperature Precipitation Wind Pressure Humidity
    00:00 -4°C° 0 mm 3 mps 752 mmHg 91%
    01:00 -3°C° 0 mm 2 mps 752 mmHg 91%
    02:00 -3°C° 0 mm 2 mps 752 mmHg 89%
    03:00 -3°C° 0 mm 2 mps 752 mmHg 88%
    04:00 -3°C° 0 mm 2 mps 752 mmHg 86%
    05:00 -3°C° 0 mm 2 mps 752 mmHg 85%
    06:00 -3°C° 0 mm 2 mps 753 mmHg 84%
    07:00 -3°C° 0 mm 2 mps 753 mmHg 84%
    08:00 -3°C° 0 mm 2 mps 753 mmHg 83%
    09:00 -2°C° 0 mm 2 mps 753 mmHg 82%
    10:00 -2°C° 0 mm 2 mps 753 mmHg 81%
    11:00 -1°C° 0 mm 2 mps 753 mmHg 79%
    12:00 -1°C° 0 mm 2 mps 753 mmHg 77%
    13:00 +1°C° 0 mm 2 mps 753 mmHg 75%
    14:00 -1°C° 0 mm 2 mps 753 mmHg 78%
    15:00 -1°C° 0 mm 2 mps 753 mmHg 81%
    16:00 -2°C° 0 mm 2 mps 752 mmHg 85%
    17:00 -2°C° 0 mm 2 mps 752 mmHg 86%
    18:00 -3°C° 0 mm 2 mps 752 mmHg 87%
    19:00 -3°C° 0 mm 2 mps 752 mmHg 88%
    20:00 -1°C° 0 mm 1 mps 752 mmHg 87%
    21:00 -1°C° 0 mm 1 mps 752 mmHg 86%
    22:00 -1°C° 0 mm 1 mps 752 mmHg 85%
    23:00 -1°C° 0 mm 1 mps 752 mmHg 85%

    Day after tomorrow, 20 January, Sunday

    Time Temperature Precipitation Wind Pressure Humidity
    00:00 -1°C° 0 mm 1 mps 752 mmHg 85%
    01:00 -2°C° 0 mm 1 mps 752 mmHg 85%
    02:00 -2°C° 0 mm 1 mps 752 mmHg 85%
    03:00 -2°C° 0 mm 1 mps 751 mmHg 85%
    04:00 -2°C° 0 mm 1 mps 751 mmHg 85%
    05:00 -2°C° 0 mm 1 mps 751 mmHg 85%
    06:00 -3°C° 0 mm 0 mps 751 mmHg 85%
    07:00 -3°C° 0 mm 0 mps 751 mmHg 85%
    08:00 -3°C° 0 mm 0 mps 751 mmHg 82%
    09:00 -2°C° 0 mm 0 mps 752 mmHg 80%
    10:00 -2°C° 0 mm 0 mps 752 mmHg 78%
    11:00 0°C° 0 mm 1 mps 752 mmHg 76%
    12:00 +1°C° 0 mm 1 mps 752 mmHg 74%
    13:00 +1°C° 0 mm 1 mps 752 mmHg 72%
    14:00 +1°C° 0 mm 1 mps 752 mmHg 76%
    15:00 -2°C° 0 mm 2 mps 752 mmHg 80%
    16:00 -2°C° 0 mm 2 mps 752 mmHg 85%
    17:00 -3°C° 0 mm 2 mps 752 mmHg 86%
    18:00 -3°C° 0 mm 2 mps 753 mmHg 88%
    19:00 -3°C° 0 mm 2 mps 753 mmHg 89%
    20:00 -3°C° 0 mm 2 mps 753 mmHg 89%
    21:00 -3°C° 0 mm 2 mps 754 mmHg 89%
    22:00 -4°C° 0 mm 2 mps 754 mmHg 89%
    23:00 -3°C° 0 mm 2 mps 754 mmHg 88%

    21 January, Monday

    Time Temperature Precipitation Wind Pressure Humidity
    00:00 -3°C° 0 mm 2 mps 754 mmHg 87%
    01:00 -4°C° 0 mm 3 mps 755 mmHg 87%
    02:00 -3°C° 0 mm 2 mps 755 mmHg 87%
    03:00 -3°C° 0 mm 2 mps 755 mmHg 87%
    04:00 -3°C° 0 mm 2 mps 755 mmHg 87%
    05:00 -4°C° 0 mm 2 mps 755 mmHg 87%
    06:00 -4°C° 0 mm 2 mps 755 mmHg 87%
    07:00 -4°C° 0 mm 2 mps 755 mmHg 87%
    08:00 -3°C° 0 mm 2 mps 755 mmHg 84%
    09:00 -3°C° 0 mm 2 mps 756 mmHg 81%
    10:00 -3°C° 0 mm 2 mps 756 mmHg 78%
    11:00 -2°C° 0 mm 2 mps 756 mmHg 74%
    12:00 -2°C° 0 mm 3 mps 756 mmHg 71%
    13:00 -1°C° 0 mm 3 mps 756 mmHg 67%
    14:00 -2°C° 0 mm 3 mps 755 mmHg 71%
    15:00 -2°C° 0 mm 3 mps 755 mmHg 75%
    16:00 -4°C° 0 mm 3 mps 755 mmHg 78%
    17:00 -4°C° 0 mm 3 mps 754 mmHg 80%
    18:00 -4°C° 0 mm 3 mps 754 mmHg 82%
    19:00 -5°C° 0 mm 3 mps 754 mmHg 83%
    20:00 -5°C° 0 mm 3 mps 754 mmHg 82%
    21:00 -5°C° 0 mm 3 mps 753 mmHg 80%
    22:00 -5°C° 0 mm 3 mps 753 mmHg 78%
    23:00 -5°C° 0 mm 3 mps 753 mmHg 77%

    22 January, Tuesday

    Time Temperature Precipitation Wind Pressure Humidity
    00:00 -5°C° 0 mm 3 mps 752 mmHg 76%
    01:00 -5°C° 0 mm 3 mps 752 mmHg 75%
    02:00 -5°C° 0 mm 3 mps 751 mmHg 74%
    03:00 -6°C° 0 mm 3 mps 750 mmHg 73%
    04:00 -6°C° 0 mm 3 mps 750 mmHg 72%
    05:00 -6°C° 0 mm 3 mps 749 mmHg 71%
    06:00 -6°C° 0 mm 3 mps 748 mmHg 71%
    07:00 -6°C° 0 mm 3 mps 748 mmHg 71%
    08:00 -7°C° 0 mm 4 mps 747 mmHg 69%
    09:00 -5°C° 0 mm 4 mps 747 mmHg 66%
    10:00 -5°C° 0 mm 4 mps 746 mmHg 63%
    11:00 -4°C° 0 mm 4 mps 746 mmHg 60%
    12:00 -3°C° 0 mm 4 mps 745 mmHg 57%
    13:00 -2°C° 0 mm 5 mps 745 mmHg 54%
    14:00 -3°C° 0 mm 4 mps 744 mmHg 58%
    15:00 -3°C° 0 mm 4 mps 743 mmHg 62%
    16:00 -4°C° 0 mm 4 mps 743 mmHg 65%
    17:00 -4°C° 0 mm 4 mps 742 mmHg 68%
    18:00 -4°C° 0 mm 4 mps 742 mmHg 71%
    19:00 -5°C° 0 mm 4 mps 742 mmHg 74%
    20:00 -5°C° 0 mm 4 mps 742 mmHg 74%
    21:00 -5°C° 0 mm 4 mps 741 mmHg 74%
    22:00 -5°C° 0 mm 4 mps 741 mmHg 74%
    23:00 -5°C° 0 mm 4 mps 741 mmHg 73%

    23 January, Wednesday

    Time Temperature Precipitation Wind Pressure Humidity
    00:00 -5°C° 0 mm 4 mps 740 mmHg 72%
    01:00 -5°C° 0 mm 4 mps 740 mmHg 71%
    02:00 -5°C° 0 mm 4 mps 740 mmHg 72%
    03:00 -5°C° 0 mm 4 mps 739 mmHg 73%
    04:00 -5°C° 0 mm 4 mps 739 mmHg 74%
    05:00 -5°C° 0.1 mm 4 mps 739 mmHg 75%
    06:00 -5°C° 0.1 mm 4 mps 738 mmHg 76%
    07:00 -5°C° 0.1 mm 4 mps 738 mmHg 77%
    08:00 -5°C° 0.1 mm 4 mps 738 mmHg 77%
    09:00 -5°C° 0.1 mm 4 mps 738 mmHg 76%
    10:00 -4°C° 0.1 mm 4 mps 738 mmHg 76%
    11:00 -4°C° 0.1 mm 4 mps 738 mmHg 77%
    12:00 -4°C° 0.1 mm 4 mps 738 mmHg 79%
    13:00 -4°C° 0.1 mm 4 mps 738 mmHg 80%
    14:00 -4°C° 0.2 mm 4 mps 738 mmHg 82%
    15:00 -4°C° 0.2 mm 4 mps 738 mmHg 84%
    16:00 -4°C° 0.2 mm 4 mps 738 mmHg 86%
    17:00 -4°C° 0.3 mm 4 mps 738 mmHg 87%
    18:00 -4°C° 0.3 mm 4 mps 738 mmHg 87%
    19:00 -4°C° 0.3 mm 4 mps 738 mmHg 87%
    20:00 -4°C° 0.1 mm 4 mps 738 mmHg 87%
    21:00 -4°C° 0.1 mm 4 mps 738 mmHg 86%
    22:00 -4°C° 0.1 mm 4 mps 738 mmHg 86%
    23:00 -4°C° 0.1 mm 4 mps 738 mmHg 86%
    Show more